Tracking 29892 objects as of 21-Nov-2024
HD Live streaming from Space Station
objects crossing your sky now

STARLINK-4373

Track STARLINK-4373 now!
10-day predictions
STARLINK-4373 is classified as:


NORAD ID: 53219
Int'l Code: 2022-084AG
Perigee: 568.4 km
Apogee: 571.9 km
Inclination: 97.7 °
Period: 95.9 minutes
Semi major axis: 6941 km
RCS: Unknown
Launch date: July 22, 2022
Source: United States (US)
Launch site: AIR FORCE WESTERN TEST RANGE (AFWTR)
Your satellite tracking list
Your tracking list is empty




NASA's NSSDC Master Catalog

Two Line Element Set (TLE):
1 53219U 22084AG  24325.90121866 -.00000420  00000-0 -28082-4 0  9997
2 53219  97.6559  24.4871 0002482  89.8506 270.3003 15.01258091128234
Source of the keplerian elements: AFSPC